TimeCDT,TemperatureF,Dew PointF,Humidity,Sea Level PressureIn,VisibilityMPH,Wind Direction,Wind SpeedMPH,Gust SpeedMPH,PrecipitationIn,Events,Conditions,WindDirDegrees,DateUTC
12:54 AM,71.1,62.1,73,29.92,10.0,Calm,Calm,-,N/A,,Clear,0,2013-07-01 05:54:00
1:54 AM,69.1,62.1,78,29.92,10.0,Calm,Calm,-,N/A,,Clear,0,2013-07-01 06:54:00
2:54 AM,66.9,62.1,84,29.92,10.0,Calm,Calm,-,N/A,,Clear,0,2013-07-01 07:54:00
3:54 AM,64.9,61.0,87,29.93,10.0,Calm,Calm,-,N/A,,Clear,0,2013-07-01 08:54:00
4:54 AM,64.0,61.0,90,29.94,10.0,Calm,Calm,-,N/A,,Clear,0,2013-07-01 09:54:00
5:54 AM,63.0,60.1,90,29.95,10.0,Calm,Calm,-,N/A,,Clear,0,2013-07-01 10:54:00
6:54 AM,64.9,62.1,90,29.96,10.0,Calm,Calm,-,N/A,,Clear,0,2013-07-01 11:54:00
7:54 AM,73.9,63.0,68,29.98,10.0,Calm,Calm,-,N/A,,Clear,0,2013-07-01 12:54:00
8:54 AM,78.1,63.0,60,29.99,10.0,Variable,3.5,-,N/A,,Clear,0,2013-07-01 13:54:00
9:54 AM,81.0,63.0,54,29.99,10.0,NNE,5.8,-,N/A,,Clear,20,2013-07-01 14:54:00
10:54 AM,84.0,62.1,47,29.99,10.0,Variable,3.5,-,N/A,,Clear,0,2013-07-01 15:54:00
11:54 AM,86.0,61.0,43,29.98,10.0,Variable,4.6,-,N/A,,Partly Cloudy,0,2013-07-01 16:54:00
12:54 PM,86.0,61.0,43,29.98,10.0,Variable,4.6,-,N/A,,Scattered Clouds,0,2013-07-01 17:54:00
1:54 PM,87.1,59.0,39,29.96,10.0,Variable,5.8,-,N/A,,Scattered Clouds,0,2013-07-01 18:54:00
2:54 PM,89.1,57.9,35,29.95,10.0,Variable,4.6,-,N/A,,Scattered Clouds,0,2013-07-01 19:54:00
3:54 PM,89.1,59.0,36,29.94,10.0,NNE,8.1,-,N/A,,Scattered Clouds,20,2013-07-01 20:54:00
4:54 PM,88.0,59.0,37,29.94,10.0,NNW,6.9,-,N/A,,Partly Cloudy,340,2013-07-01 21:54:00
5:54 PM,84.9,60.1,43,29.94,10.0,Variable,4.6,-,N/A,,Partly Cloudy,0,2013-07-01 22:54:00
6:54 PM,84.9,60.1,43,29.95,10.0,Variable,3.5,-,N/A,,Clear,0,2013-07-01 23:54:00
7:54 PM,80.1,62.1,54,29.97,10.0,Calm,Calm,-,N/A,,Clear,0,2013-07-02 00:54:00
8:54 PM,75.0,64.9,71,29.98,10.0,Calm,Calm,-,N/A,,Clear,0,2013-07-02 01:54:00
9:54 PM,73.0,64.0,73,29.99,10.0,Calm,Calm,-,N/A,,Clear,0,2013-07-02 02:54:00
10:54 PM,71.1,63.0,75,30.01,10.0,Calm,Calm,-,N/A,,Clear,0,2013-07-02 03:54:00
11:54 PM,70.0,63.0,78,30.01,10.0,Calm,Calm,-,N/A,,Clear,0,2013-07-02 04:54:00